Time,TemperatureF,DewpointF,PressureIn,WindDirection,WindDirectionDegrees,WindSpeedMPH,WindSpeedGustMPH,Humidity,HourlyPrecipIn,Conditions,Clouds,dailyrainin,SoftwareType,DateUTC
2013-02-11 00:00:00,30.9,20.5,29.59,West,270,13.0,13.0,65,0.00,,---,0.00,VWS V14.01,2013-02-11 06:00:00,
2013-02-11 00:05:00,30.9,20.9,29.59,WNW,292,7.4,12.5,66,0.00,,---,0.00,VWS V14.01,2013-02-11 06:05:00,
2013-02-11 00:10:00,30.9,20.9,29.59,NNW,338,10.1,15.4,66,0.00,,---,0.00,VWS V14.01,2013-02-11 06:10:00,
2013-02-11 00:15:00,30.9,20.5,29.59,NNW,338,10.3,14.5,65,0.00,,---,0.00,VWS V14.01,2013-02-11 06:15:00,
2013-02-11 00:20:00,31.1,21.1,29.59,WNW,292,15.4,15.4,66,0.00,,---,0.00,VWS V14.01,2013-02-11 06:20:00,
2013-02-11 00:26:00,31.1,20.7,29.62,WNW,292,12.5,12.8,65,0.00,,---,0.00,VWS V14.01,2013-02-11 06:26:00,
2013-02-11 00:31:00,31.3,20.5,29.62,NW,315,6.0,6.0,64,0.00,,---,0.00,VWS V14.01,2013-02-11 06:31:00,
2013-02-11 00:36:00,31.1,20.7,29.62,WNW,292,17.2,17.2,65,0.00,,---,0.00,VWS V14.01,2013-02-11 06:36:00,
2013-02-11 00:41:00,31.3,20.5,29.62,WNW,292,6.5,6.5,64,0.00,,---,0.00,VWS V14.01,2013-02-11 06:41:00,
2013-02-11 00:46:00,31.3,20.5,29.62,WNW,292,23.5,23.5,64,0.00,,---,0.00,VWS V14.01,2013-02-11 06:46:00,
2013-02-11 00:51:00,31.3,20.5,29.62,WNW,292,12.5,17.0,64,0.00,,---,0.00,VWS V14.01,2013-02-11 06:51:00,
2013-02-11 00:56:00,31.3,20.5,29.62,West,270,17.2,17.2,64,0.00,,---,0.00,VWS V14.01,2013-02-11 06:56:00,
2013-02-11 01:01:00,31.3,20.5,29.62,WNW,292,14.8,14.8,64,0.00,,---,0.00,VWS V14.01,2013-02-11 07:01:00,
2013-02-11 01:06:00,31.3,20.5,29.62,WNW,292,4.0,6.3,64,0.00,,---,0.00,VWS V14.01,2013-02-11 07:06:00,
2013-02-11 01:11:00,31.3,20.5,29.62,WNW,292,12.1,12.1,64,0.00,,---,0.00,VWS V14.01,2013-02-11 07:11:00,
2013-02-11 01:16:00,31.1,20.4,29.62,NNW,338,13.0,13.0,64,0.00,,---,0.00,VWS V14.01,2013-02-11 07:16:00,
2013-02-11 01:21:00,31.1,20.4,29.62,West,270,6.3,7.2,64,0.00,,---,0.00,VWS V14.01,2013-02-11 07:21:00,
2013-02-11 01:26:00,31.1,20.7,29.62,NW,315,7.8,11.0,65,0.00,,---,0.00,VWS V14.01,2013-02-11 07:26:00,
2013-02-11 01:31:00,31.1,21.1,29.62,West,270,16.3,16.3,66,0.00,,---,0.00,VWS V14.01,2013-02-11 07:31:00,
2013-02-11 01:36:00,30.9,21.3,29.62,WNW,292,11.0,11.0,67,0.00,,---,0.00,VWS V14.01,2013-02-11 07:36:00,
2013-02-11 01:41:00,30.7,21.4,29.65,West,270,12.1,12.1,68,0.00,,---,0.00,VWS V14.01,2013-02-11 07:41:00,
2013-02-11 01:46:00,30.7,21.8,29.65,WNW,292,12.1,15.4,69,0.00,,---,0.00,VWS V14.01,2013-02-11 07:46:00,
2013-02-11 01:51:00,30.7,21.8,29.65,NW,315,7.8,9.6,69,0.00,,---,0.00,VWS V14.01,2013-02-11 07:51:00,
2013-02-11 01:56:00,30.7,22.1,29.65,WNW,292,10.1,10.1,70,0.00,,---,0.00,VWS V14.01,2013-02-11 07:56:00,
2013-02-11 02:01:00,30.6,22.0,29.65,WNW,292,5.6,5.6,70,0.00,,---,0.00,VWS V14.01,2013-02-11 08:01:00,
2013-02-11 02:06:00,30.6,22.3,29.65,NNW,338,8.1,8.5,71,0.00,,---,0.00,VWS V14.01,2013-02-11 08:06:00,
2013-02-11 02:11:00,30.6,22.3,29.65,WSW,248,5.8,8.7,71,0.00,,---,0.00,VWS V14.01,2013-02-11 08:11:00,
2013-02-11 02:16:00,30.6,22.3,29.65,NW,315,8.5,8.5,71,0.00,,---,0.00,VWS V14.01,2013-02-11 08:16:00,
2013-02-11 02:21:00,30.7,22.8,29.68,WNW,292,10.1,10.1,72,0.00,,---,0.00,VWS V14.01,2013-02-11 08:21:00,
2013-02-11 02:26:00,31.1,22.8,29.68,NW,315,6.3,6.3,71,0.00,,---,0.00,VWS V14.01,2013-02-11 08:26:00,
2013-02-11 02:31:00,31.1,22.8,29.68,WNW,292,5.8,5.8,71,0.00,,---,0.00,VWS V14.01,2013-02-11 08:31:00,
2013-02-11 02:36:00,31.1,22.5,29.68,WNW,292,4.3,4.3,70,0.00,,---,0.00,VWS V14.01,2013-02-11 08:36:00,
2013-02-11 02:41:00,30.9,22.3,29.68,WNW,292,17.7,17.7,70,0.00,,---,0.00,VWS V14.01,2013-02-11 08:41:00,
2013-02-11 02:46:00,30.7,21.8,29.68,NW,315,5.6,9.6,69,0.00,,---,0.00,VWS V14.01,2013-02-11 08:46:00,
2013-02-11 02:51:00,30.7,21.8,29.68,WNW,292,15.4,15.4,69,0.00,,---,0.00,VWS V14.01,2013-02-11 08:51:00,
2013-02-11 02:56:00,30.6,21.6,29.68,NW,315,4.9,4.9,69,0.00,,---,0.00,VWS V14.01,2013-02-11 08:56:00,
2013-02-11 03:01:00,30.4,21.4,29.68,NW,315,13.4,13.4,69,0.00,,---,0.00,VWS V14.01,2013-02-11 09:01:00,
2013-02-11 03:06:00,30.4,21.4,29.68,WNW,292,15.4,15.4,69,0.00,,---,0.00,VWS V14.01,2013-02-11 09:06:00,
2013-02-11 03:11:00,30.4,21.4,29.71,NW,315,9.6,9.6,69,0.00,,---,0.00,VWS V14.01,2013-02-11 09:11:00,
2013-02-11 03:16:00,30.4,21.1,29.71,WNW,292,12.5,13.4,68,0.00,,---,0.00,VWS V14.01,2013-02-11 09:16:00,
2013-02-11 03:21:00,30.2,21.3,29.68,WNW,292,10.1,10.1,69,0.00,,---,0.00,VWS V14.01,2013-02-11 09:21:00,
2013-02-11 03:26:00,30.2,20.9,29.68,WNW,292,7.4,8.1,68,0.00,,---,0.00,VWS V14.01,2013-02-11 09:26:00,
2013-02-11 03:31:00,30.2,20.9,29.68,NNW,338,6.5,6.5,68,0.00,,---,0.00,VWS V14.01,2013-02-11 09:31:00,
2013-02-11 03:36:00,30.0,20.8,29.71,WNW,292,10.7,10.7,68,0.00,,---,0.00,VWS V14.01,2013-02-11 09:36:00,
2013-02-11 03:41:00,30.0,20.4,29.71,WNW,292,11.0,11.0,67,0.00,,---,0.00,VWS V14.01,2013-02-11 09:41:00,
2013-02-11 03:46:00,30.0,20.4,29.71,NW,315,12.3,12.3,67,0.00,,---,0.00,VWS V14.01,2013-02-11 09:46:00,
2013-02-11 03:51:00,30.0,20.4,29.71,North,0,13.0,13.0,67,0.00,,---,0.00,VWS V14.01,2013-02-11 09:51:00,
2013-02-11 03:56:00,30.0,20.4,29.71,WNW,292,13.6,13.6,67,0.00,,---,0.00,VWS V14.01,2013-02-11 09:56:00,
2013-02-11 04:01:00,30.0,20.4,29.71,NW,315,7.8,7.8,67,0.00,,---,0.00,VWS V14.01,2013-02-11 10:01:00,
2013-02-11 04:06:00,29.8,20.6,29.71,WNW,292,11.0,11.0,68,0.00,,---,0.00,VWS V14.01,2013-02-11 10:06:00,
2013-02-11 04:11:00,29.8,20.2,29.71,WNW,292,9.8,9.8,67,0.00,,---,0.00,VWS V14.01,2013-02-11 10:11:00,
2013-02-11 04:16:00,29.8,20.6,29.71,WNW,292,10.3,10.3,68,0.00,,---,0.00,VWS V14.01,2013-02-11 10:16:00,
2013-02-11 04:21:00,29.8,20.2,29.71,WNW,292,6.3,10.5,67,0.00,,---,0.00,VWS V14.01,2013-02-11 10:21:00,
2013-02-11 04:26:00,29.7,20.1,29.71,WNW,292,4.5,17.7,67,0.00,,---,0.00,VWS V14.01,2013-02-11 10:26:00,
2013-02-11 04:31:00,29.5,19.5,29.71,WNW,292,11.0,11.0,66,0.00,,---,0.00,VWS V14.01,2013-02-11 10:31:00,
2013-02-11 04:36:00,29.5,19.5,29.74,NNW,338,7.4,15.2,66,0.00,,---,0.00,VWS V14.01,2013-02-11 10:36:00,
2013-02-11 04:41:00,29.5,19.5,29.74,WNW,292,5.6,5.6,66,0.00,,---,0.00,VWS V14.01,2013-02-11 10:41:00,
2013-02-11 04:46:00,29.5,19.9,29.74,WNW,292,7.4,7.4,67,0.00,,---,0.00,VWS V14.01,2013-02-11 10:46:00,
2013-02-11 04:51:00,29.5,19.9,29.74,WNW,292,13.9,13.9,67,0.00,,---,0.00,VWS V14.01,2013-02-11 10:51:00,
2013-02-11 04:56:00,29.3,19.7,29.74,NW,315,10.1,10.1,67,0.00,,---,0.00,VWS V14.01,2013-02-11 10:56:00,
2013-02-11 05:01:00,29.3,19.7,29.74,WSW,248,4.0,11.9,67,0.00,,---,0.00,VWS V14.01,2013-02-11 11:01:00,
2013-02-11 05:06:00,29.1,19.5,29.74,NNW,338,10.5,10.5,67,0.00,,---,0.00,VWS V14.01,2013-02-11 11:06:00,
2013-02-11 05:11:00,28.9,19.0,29.74,NNW,338,5.8,5.8,66,0.00,,---,0.00,VWS V14.01,2013-02-11 11:11:00,
2013-02-11 05:16:00,28.9,19.0,29.74,NW,315,8.5,10.7,66,0.00,,---,0.00,VWS V14.01,2013-02-11 11:16:00,
2013-02-11 05:21:00,28.9,19.0,29.76,WNW,292,6.0,6.5,66,0.00,,---,0.00,VWS V14.01,2013-02-11 11:21:00,
2013-02-11 05:26:00,28.8,19.2,29.76,WNW,292,4.3,4.3,67,0.00,,---,0.00,VWS V14.01,2013-02-11 11:26:00,
2013-02-11 05:31:00,28.6,19.0,29.76,WNW,292,6.0,6.0,67,0.00,,---,0.00,VWS V14.01,2013-02-11 11:31:00,
2013-02-11 05:36:00,28.6,19.0,29.76,West,270,4.9,4.9,67,0.00,,---,0.00,VWS V14.01,2013-02-11 11:36:00,
2013-02-11 05:41:00,28.6,19.4,29.76,WNW,292,6.5,10.3,68,0.00,,---,0.00,VWS V14.01,2013-02-11 11:41:00,
2013-02-11 05:46:00,28.8,19.5,29.76,NW,315,5.4,5.8,68,0.00,,---,0.00,VWS V14.01,2013-02-11 11:46:00,
2013-02-11 05:51:00,28.9,19.7,29.79,WNW,292,9.6,9.6,68,0.00,,---,0.00,VWS V14.01,2013-02-11 11:51:00,
2013-02-11 05:56:00,28.9,19.7,29.79,WNW,292,6.5,6.5,68,0.00,,---,0.00,VWS V14.01,2013-02-11 11:56:00,
2013-02-11 06:01:00,29.1,20.2,29.79,WNW,292,6.3,6.3,69,0.00,,---,0.00,VWS V14.01,2013-02-11 12:01:00,
2013-02-11 06:06:00,29.1,20.2,29.79,NNW,338,7.4,7.4,69,0.00,,---,0.00,VWS V14.01,2013-02-11 12:06:00,
2013-02-11 06:11:00,29.3,20.4,29.79,North,0,7.2,7.2,69,0.00,,---,0.00,VWS V14.01,2013-02-11 12:11:00,
2013-02-11 06:16:00,29.3,20.4,29.79,West,270,5.4,5.4,69,0.00,,---,0.00,VWS V14.01,2013-02-11 12:16:00,
2013-02-11 06:21:00,29.3,20.4,29.79,WNW,292,2.7,7.4,69,0.00,,---,0.00,VWS V14.01,2013-02-11 12:21:00,
2013-02-11 06:26:00,29.3,20.4,29.79,NW,315,6.3,6.3,69,0.00,,---,0.00,VWS V14.01,2013-02-11 12:26:00,
2013-02-11 06:31:00,29.3,20.4,29.79,WNW,292,3.8,3.8,69,0.00,,---,0.00,VWS V14.01,2013-02-11 12:31:00,
2013-02-11 06:36:00,29.5,20.6,29.79,WNW,292,7.4,7.4,69,0.00,,---,0.00,VWS V14.01,2013-02-11 12:36:00,
2013-02-11 06:42:00,29.5,20.6,29.79,WNW,292,10.1,10.1,69,0.00,,---,0.00,VWS V14.01,2013-02-11 12:42:00,
2013-02-11 06:47:00,29.5,20.2,29.79,WSW,248,5.4,5.4,68,0.00,,---,0.00,VWS V14.01,2013-02-11 12:47:00,
2013-02-11 06:52:00,29.5,20.2,29.79,WNW,292,8.5,8.5,68,0.00,,---,0.00,VWS V14.01,2013-02-11 12:52:00,
2013-02-11 06:57:00,29.5,20.2,29.79,NNW,338,11.0,11.0,68,0.00,,---,0.00,VWS V14.01,2013-02-11 12:57:00,
2013-02-11 07:02:00,29.5,20.2,29.79,WNW,292,6.5,12.1,68,0.00,,---,0.00,VWS V14.01,2013-02-11 13:02:00,
2013-02-11 07:07:00,29.7,20.4,29.79,WNW,292,12.1,12.1,68,0.00,,---,0.00,VWS V14.01,2013-02-11 13:07:00,
2013-02-11 07:12:00,29.7,20.4,29.79,NW,315,6.0,6.0,68,0.00,,---,0.00,VWS V14.01,2013-02-11 13:12:00,
2013-02-11 07:17:00,29.7,20.1,29.79,NNW,338,7.4,9.8,67,0.00,,---,0.00,VWS V14.01,2013-02-11 13:17:00,
2013-02-11 07:22:00,29.5,20.2,29.79,ENE,68,6.0,7.4,68,0.00,,---,0.00,VWS V14.01,2013-02-11 13:22:00,
2013-02-11 07:27:00,29.5,20.2,29.79,West,270,8.7,8.7,68,0.00,,---,0.00,VWS V14.01,2013-02-11 13:27:00,
2013-02-11 07:32:00,29.5,20.2,29.79,WNW,292,10.7,10.7,68,0.00,,---,0.00,VWS V14.01,2013-02-11 13:32:00,
2013-02-11 07:37:00,29.5,19.9,29.79,WNW,292,12.5,12.5,67,0.00,,---,0.00,VWS V14.01,2013-02-11 13:37:00,
2013-02-11 07:42:00,29.5,19.9,29.79,WNW,292,8.5,8.5,67,0.00,,---,0.00,VWS V14.01,2013-02-11 13:42:00,
2013-02-11 07:47:00,29.5,19.9,29.79,WNW,292,8.1,8.1,67,0.00,,---,0.00,VWS V14.01,2013-02-11 13:47:00,
2013-02-11 07:52:00,29.5,19.9,29.82,WNW,292,5.4,5.4,67,0.00,,---,0.00,VWS V14.01,2013-02-11 13:52:00,
2013-02-11 07:57:00,29.5,19.9,29.82,NW,315,3.6,3.6,67,0.00,,---,0.00,VWS V14.01,2013-02-11 13:57:00,
2013-02-11 08:02:00,29.5,19.9,29.82,NNW,338,8.5,16.8,67,0.00,,---,0.00,VWS V14.01,2013-02-11 14:02:00,
2013-02-11 08:07:00,29.5,19.5,29.82,WNW,292,6.0,6.0,66,0.00,,---,0.00,VWS V14.01,2013-02-11 14:07:00,
2013-02-11 08:12:00,29.8,19.9,29.82,West,270,4.3,4.3,66,0.00,,---,0.00,VWS V14.01,2013-02-11 14:12:00,
2013-02-11 08:17:00,30.0,20.0,29.82,WNW,292,8.1,8.1,66,0.00,,---,0.00,VWS V14.01,2013-02-11 14:17:00,
2013-02-11 08:22:00,30.2,20.2,29.82,WNW,292,7.2,7.2,66,0.00,,---,0.00,VWS V14.01,2013-02-11 14:22:00,
2013-02-11 08:27:00,30.2,20.2,29.82,West,270,9.4,9.4,66,0.00,,---,0.00,VWS V14.01,2013-02-11 14:27:00,
2013-02-11 08:32:00,30.4,20.0,29.82,NW,315,8.7,8.7,65,0.00,,---,0.00,VWS V14.01,2013-02-11 14:32:00,
2013-02-11 08:37:00,30.6,20.2,29.82,WNW,292,6.0,6.0,65,0.00,,---,0.00,VWS V14.01,2013-02-11 14:37:00,
2013-02-11 08:42:00,30.7,20.4,29.82,NW,315,5.8,5.8,65,0.00,,---,0.00,VWS V14.01,2013-02-11 14:42:00,
2013-02-11 08:47:00,30.6,19.9,29.82,WNW,292,4.0,4.0,64,0.00,,---,0.00,VWS V14.01,2013-02-11 14:47:00,
2013-02-11 08:52:00,30.4,19.7,29.82,WNW,292,5.8,8.1,64,0.00,,---,0.00,VWS V14.01,2013-02-11 14:52:00,
2013-02-11 08:57:00,30.4,19.3,29.82,NW,315,8.1,8.1,63,0.00,,---,0.00,VWS V14.01,2013-02-11 14:57:00,
2013-02-11 09:02:00,30.4,19.7,29.82,WNW,292,5.4,6.0,64,0.00,,---,0.00,VWS V14.01,2013-02-11 15:02:00,
2013-02-11 09:07:00,30.4,19.7,29.85,WNW,292,5.6,5.6,64,0.00,,---,0.00,VWS V14.01,2013-02-11 15:07:00,
2013-02-11 09:12:00,30.4,19.7,29.85,NW,315,8.5,8.5,64,0.00,,---,0.00,VWS V14.01,2013-02-11 15:12:00,
2013-02-11 09:17:00,30.4,19.7,29.85,NE,45,5.8,5.8,64,0.00,,---,0.00,VWS V14.01,2013-02-11 15:17:00,
2013-02-11 09:22:00,30.2,19.1,29.85,NNE,22,2.9,2.9,63,0.00,,---,0.00,VWS V14.01,2013-02-11 15:22:00,
2013-02-11 09:27:00,30.4,19.7,29.85,WNW,292,4.3,4.3,64,0.00,,---,0.00,VWS V14.01,2013-02-11 15:27:00,
2013-02-11 09:32:00,30.6,19.9,29.85,WNW,292,3.4,5.6,64,0.00,,---,0.00,VWS V14.01,2013-02-11 15:32:00,
2013-02-11 09:37:00,30.6,19.9,29.85,NNW,338,7.6,7.6,64,0.00,,---,0.00,VWS V14.01,2013-02-11 15:37:00,
2013-02-11 09:42:00,30.6,19.9,29.85,WNW,292,2.7,10.3,64,0.00,,---,0.00,VWS V14.01,2013-02-11 15:42:00,
2013-02-11 09:47:00,30.6,19.5,29.85,WNW,292,6.5,6.5,63,0.00,,---,0.00,VWS V14.01,2013-02-11 15:47:00,
2013-02-11 09:52:00,30.7,19.6,29.88,WNW,292,4.3,4.3,63,0.00,,---,0.00,VWS V14.01,2013-02-11 15:52:00,
2013-02-11 09:57:00,30.9,19.8,29.88,WNW,292,10.1,10.1,63,0.00,,---,0.00,VWS V14.01,2013-02-11 15:57:00,
2013-02-11 10:02:00,31.1,20.0,29.88,WNW,292,6.3,6.3,63,0.00,,---,0.00,VWS V14.01,2013-02-11 16:02:00,
2013-02-11 10:07:00,31.1,20.0,29.88,North,0,5.6,6.5,63,0.00,,---,0.00,VWS V14.01,2013-02-11 16:07:00,
2013-02-11 10:12:00,31.3,20.2,29.88,NW,315,4.9,4.9,63,0.00,,---,0.00,VWS V14.01,2013-02-11 16:12:00,
2013-02-11 10:17:00,31.3,19.8,29.88,WNW,292,9.4,9.4,62,0.00,,---,0.00,VWS V14.01,2013-02-11 16:17:00,
2013-02-11 10:22:00,31.3,20.2,29.88,WNW,292,5.6,6.3,63,0.00,,---,0.00,VWS V14.01,2013-02-11 16:22:00,
2013-02-11 10:27:00,31.8,19.9,29.88,WNW,292,6.5,6.5,61,0.00,,---,0.00,VWS V14.01,2013-02-11 16:27:00,
2013-02-11 10:32:00,31.8,19.9,29.88,NW,315,7.4,7.4,61,0.00,,---,0.00,VWS V14.01,2013-02-11 16:32:00,
2013-02-11 10:37:00,32.2,20.3,29.88,West,270,8.7,8.7,61,0.00,,---,0.00,VWS V14.01,2013-02-11 16:37:00,
2013-02-11 10:42:00,32.2,20.3,29.88,North,0,5.4,12.3,61,0.00,,---,0.00,VWS V14.01,2013-02-11 16:42:00,
2013-02-11 10:47:00,32.2,20.3,29.88,WNW,292,6.3,6.3,61,0.00,,---,0.00,VWS V14.01,2013-02-11 16:47:00,
2013-02-11 10:52:00,32.4,20.4,29.88,NNW,338,6.0,6.0,61,0.00,,---,0.00,VWS V14.01,2013-02-11 16:52:00,
2013-02-11 10:57:00,32.7,20.4,29.88,NNW,338,8.5,14.8,60,0.00,,---,0.00,VWS V14.01,2013-02-11 16:57:00,
2013-02-11 11:02:00,33.1,20.7,29.88,WNW,292,8.7,8.7,60,0.00,,---,0.00,VWS V14.01,2013-02-11 17:02:00,
2013-02-11 11:08:00,34.0,21.6,29.88,NNW,338,3.8,10.1,60,0.00,,---,0.00,VWS V14.01,2013-02-11 17:08:00,
2013-02-11 11:12:00,34.3,21.5,29.88,West,270,5.4,8.1,59,0.00,,---,0.00,VWS V14.01,2013-02-11 17:12:00,
2013-02-11 11:17:00,35.1,22.6,29.88,WNW,292,8.5,8.5,60,0.00,,---,0.00,VWS V14.01,2013-02-11 17:17:00,
2013-02-11 11:23:00,34.5,21.7,29.88,NNW,338,3.6,12.1,59,0.00,,---,0.00,VWS V14.01,2013-02-11 17:23:00,
2013-02-11 11:28:00,35.1,22.2,29.88,North,0,5.4,5.4,59,0.00,,---,0.00,VWS V14.01,2013-02-11 17:28:00,
2013-02-11 11:33:00,35.8,22.5,29.88,WSW,248,3.4,3.6,58,0.00,,---,0.00,VWS V14.01,2013-02-11 17:33:00,
2013-02-11 11:38:00,35.2,22.0,29.88,NNE,22,3.8,6.5,58,0.00,,---,0.00,VWS V14.01,2013-02-11 17:38:00,
2013-02-11 11:43:00,35.2,22.0,29.88,NW,315,5.8,5.8,58,0.00,,---,0.00,VWS V14.01,2013-02-11 17:43:00,
2013-02-11 11:48:00,36.0,22.6,29.88,WNW,292,2.0,2.0,58,0.00,,---,0.00,VWS V14.01,2013-02-11 17:48:00,
2013-02-11 11:53:00,36.1,22.4,29.88,WNW,292,3.4,3.4,57,0.00,,---,0.00,VWS V14.01,2013-02-11 17:53:00,
2013-02-11 11:58:00,36.3,22.1,29.88,NW,315,7.4,7.4,56,0.00,,---,0.00,VWS V14.01,2013-02-11 17:58:00,
2013-02-11 12:03:00,36.3,22.1,29.88,NNW,338,9.8,12.3,56,0.00,,---,0.00,VWS V14.01,2013-02-11 18:03:00,
2013-02-11 12:08:00,36.7,22.0,29.88,NNW,338,7.4,7.4,55,0.00,,---,0.00,VWS V14.01,2013-02-11 18:08:00,
2013-02-11 12:13:00,37.0,22.4,29.88,SSW,202,5.8,5.8,55,0.00,,---,0.00,VWS V14.01,2013-02-11 18:13:00,
2013-02-11 12:18:00,37.6,22.9,29.88,NNW,338,9.8,9.8,55,0.00,,---,0.00,VWS V14.01,2013-02-11 18:18:00,
2013-02-11 12:23:00,37.0,22.4,29.88,WNW,292,3.6,7.2,55,0.00,,---,0.00,VWS V14.01,2013-02-11 18:23:00,
2013-02-11 12:28:00,36.9,22.6,29.88,WNW,292,7.2,8.1,56,0.00,,---,0.00,VWS V14.01,2013-02-11 18:28:00,
2013-02-11 12:33:00,37.0,22.8,29.88,West,270,6.3,6.3,56,0.00,,---,0.00,VWS V14.01,2013-02-11 18:33:00,
2013-02-11 12:38:00,37.0,22.4,29.88,NW,315,8.7,8.7,55,0.00,,---,0.00,VWS V14.01,2013-02-11 18:38:00,
2013-02-11 12:43:00,37.0,22.8,29.88,North,0,4.3,4.3,56,0.00,,---,0.00,VWS V14.01,2013-02-11 18:43:00,
2013-02-11 12:48:00,36.7,22.0,29.88,NNW,338,8.7,8.7,55,0.00,,---,0.00,VWS V14.01,2013-02-11 18:48:00,
2013-02-11 12:53:00,36.9,22.2,29.88,NNW,338,3.1,9.6,55,0.00,,---,0.00,VWS V14.01,2013-02-11 18:53:00,
2013-02-11 12:58:00,37.2,23.0,29.88,NNW,338,5.6,5.6,56,0.00,,---,0.00,VWS V14.01,2013-02-11 18:58:00,
2013-02-11 13:03:00,37.6,22.5,29.88,WSW,248,7.4,8.1,54,0.00,,---,0.00,VWS V14.01,2013-02-11 19:03:00,
2013-02-11 13:08:00,37.6,22.5,29.88,WNW,292,10.7,10.7,54,0.00,,---,0.00,VWS V14.01,2013-02-11 19:08:00,
2013-02-11 13:13:00,37.9,23.2,29.88,WNW,292,8.1,8.1,55,0.00,,---,0.00,VWS V14.01,2013-02-11 19:13:00,
2013-02-11 13:18:00,37.4,22.3,29.88,West,270,5.8,5.8,54,0.00,,---,0.00,VWS V14.01,2013-02-11 19:18:00,
2013-02-11 13:23:00,37.4,22.7,29.88,WNW,292,6.3,6.3,55,0.00,,---,0.00,VWS V14.01,2013-02-11 19:23:00,
2013-02-11 13:28:00,37.2,22.6,29.88,West,270,2.7,2.7,55,0.00,,---,0.00,VWS V14.01,2013-02-11 19:28:00,
2013-02-11 13:33:00,37.2,22.6,29.88,WNW,292,4.3,4.3,55,0.00,,---,0.00,VWS V14.01,2013-02-11 19:33:00,
2013-02-11 13:38:00,37.0,22.4,29.88,West,270,2.9,2.9,55,0.00,,---,0.00,VWS V14.01,2013-02-11 19:38:00,
2013-02-11 13:43:00,37.0,22.4,29.88,WNW,292,3.8,3.8,55,0.00,,---,0.00,VWS V14.01,2013-02-11 19:43:00,
2013-02-11 13:48:00,36.7,22.0,29.88,WNW,292,2.9,2.9,55,0.00,,---,0.00,VWS V14.01,2013-02-11 19:48:00,
2013-02-11 13:53:00,36.5,21.9,29.88,WNW,292,3.1,3.1,55,0.00,,---,0.00,VWS V14.01,2013-02-11 19:53:00,
2013-02-11 13:58:00,36.3,21.7,29.88,SW,225,7.4,7.4,55,0.00,,---,0.00,VWS V14.01,2013-02-11 19:58:00,
2013-02-11 14:03:00,36.1,22.0,29.88,NW,315,3.4,3.4,56,0.00,,---,0.00,VWS V14.01,2013-02-11 20:03:00,
2013-02-11 14:08:00,36.1,21.5,29.88,NNW,338,6.5,6.5,55,0.00,,---,0.00,VWS V14.01,2013-02-11 20:08:00,
2013-02-11 14:13:00,36.1,22.0,29.88,WSW,248,10.3,10.3,56,0.00,,---,0.00,VWS V14.01,2013-02-11 20:13:00,
2013-02-11 14:18:00,35.8,21.6,29.88,WSW,248,6.7,6.7,56,0.00,,---,0.00,VWS V14.01,2013-02-11 20:18:00,
2013-02-11 14:23:00,35.8,21.6,29.88,WNW,292,7.4,7.4,56,0.00,,---,0.00,VWS V14.01,2013-02-11 20:23:00,
2013-02-11 14:28:00,35.8,21.6,29.88,WNW,292,2.5,4.0,56,0.00,,---,0.00,VWS V14.01,2013-02-11 20:28:00,
2013-02-11 14:33:00,35.8,21.6,29.88,WNW,292,3.4,3.4,56,0.00,,---,0.00,VWS V14.01,2013-02-11 20:33:00,
2013-02-11 14:38:00,35.6,21.5,29.88,WNW,292,5.4,7.8,56,0.00,,---,0.00,VWS V14.01,2013-02-11 20:38:00,
2013-02-11 14:43:00,35.6,21.5,29.88,West,270,5.6,5.6,56,0.00,,---,0.00,VWS V14.01,2013-02-11 20:43:00,
2013-02-11 14:48:00,35.6,21.5,29.88,NNW,338,2.2,2.2,56,0.00,,---,0.00,VWS V14.01,2013-02-11 20:48:00,
2013-02-11 14:53:00,35.8,21.6,29.88,North,0,2.9,2.9,56,0.00,,---,0.00,VWS V14.01,2013-02-11 20:53:00,
2013-02-11 14:58:00,36.0,21.8,29.88,WSW,248,3.8,3.8,56,0.00,,---,0.00,VWS V14.01,2013-02-11 20:58:00,
2013-02-11 15:03:00,36.3,22.1,29.88,WNW,292,4.9,4.9,56,0.00,,---,0.00,VWS V14.01,2013-02-11 21:03:00,
2013-02-11 15:08:00,36.3,22.1,29.88,NW,315,4.9,4.9,56,0.00,,---,0.00,VWS V14.01,2013-02-11 21:08:00,
2013-02-11 15:13:00,36.5,22.3,29.88,WNW,292,8.1,8.1,56,0.00,,---,0.00,VWS V14.01,2013-02-11 21:13:00,
2013-02-11 15:18:00,36.1,22.0,29.88,NNW,338,8.1,8.1,56,0.00,,---,0.00,VWS V14.01,2013-02-11 21:18:00,
2013-02-11 15:23:00,36.1,22.0,29.88,WSW,248,3.6,3.6,56,0.00,,---,0.00,VWS V14.01,2013-02-11 21:23:00,
2013-02-11 15:28:00,36.1,22.0,29.88,NW,315,6.3,6.3,56,0.00,,---,0.00,VWS V14.01,2013-02-11 21:28:00,
2013-02-11 15:33:00,36.1,22.0,29.88,NW,315,3.8,3.8,56,0.00,,---,0.00,VWS V14.01,2013-02-11 21:33:00,
2013-02-11 15:38:00,36.3,22.1,29.88,NW,315,6.0,6.0,56,0.00,,---,0.00,VWS V14.01,2013-02-11 21:38:00,
2013-02-11 15:43:00,36.3,22.1,29.88,WNW,292,3.4,3.4,56,0.00,,---,0.00,VWS V14.01,2013-02-11 21:43:00,
2013-02-11 15:48:00,36.7,22.5,29.88,WNW,292,6.9,6.9,56,0.00,,---,0.00,VWS V14.01,2013-02-11 21:48:00,
2013-02-11 15:53:00,36.5,21.9,29.88,WNW,292,4.7,4.7,55,0.00,,---,0.00,VWS V14.01,2013-02-11 21:53:00,
2013-02-11 15:58:00,36.1,22.0,29.88,WSW,248,9.8,9.8,56,0.00,,---,0.00,VWS V14.01,2013-02-11 21:58:00,
2013-02-11 16:03:00,35.8,21.6,29.88,WNW,292,6.5,6.5,56,0.00,,---,0.00,VWS V14.01,2013-02-11 22:03:00,
2013-02-11 16:08:00,35.8,21.6,29.88,WNW,292,4.3,4.3,56,0.00,,---,0.00,VWS V14.01,2013-02-11 22:08:00,
2013-02-11 16:13:00,35.4,21.3,29.88,WNW,292,4.9,6.0,56,0.00,,---,0.00,VWS V14.01,2013-02-11 22:13:00,
2013-02-11 16:19:00,35.4,21.7,29.88,East,90,4.3,7.6,57,0.00,,---,0.00,VWS V14.01,2013-02-11 22:19:00,
2013-02-11 16:24:00,35.2,21.5,29.88,WNW,292,2.7,3.8,57,0.00,,---,0.00,VWS V14.01,2013-02-11 22:24:00,
2013-02-11 16:29:00,35.2,21.5,29.88,WSW,248,3.8,3.8,57,0.00,,---,0.00,VWS V14.01,2013-02-11 22:29:00,
2013-02-11 16:34:00,35.2,21.5,29.88,NW,315,7.8,7.8,57,0.00,,---,0.00,VWS V14.01,2013-02-11 22:34:00,
2013-02-11 16:39:00,35.1,21.4,29.88,WNW,292,6.3,6.3,57,0.00,,---,0.00,VWS V14.01,2013-02-11 22:39:00,
2013-02-11 16:44:00,35.1,21.4,29.88,NW,315,4.0,4.0,57,0.00,,---,0.00,VWS V14.01,2013-02-11 22:44:00,
2013-02-11 16:49:00,34.9,21.2,29.88,WNW,292,3.1,4.9,57,0.00,,---,0.00,VWS V14.01,2013-02-11 22:49:00,
2013-02-11 16:54:00,35.1,21.8,29.88,NNW,338,2.7,4.3,58,0.00,,---,0.00,VWS V14.01,2013-02-11 22:54:00,
2013-02-11 16:59:00,35.1,21.8,29.88,NNW,338,3.1,3.1,58,0.00,,---,0.00,VWS V14.01,2013-02-11 22:59:00,
2013-02-11 17:04:00,34.9,21.6,29.88,NNE,22,2.5,2.5,58,0.00,,---,0.00,VWS V14.01,2013-02-11 23:04:00,
2013-02-11 17:09:00,34.5,21.3,29.88,WNW,292,3.1,3.1,58,0.00,,---,0.00,VWS V14.01,2013-02-11 23:09:00,
2013-02-11 17:14:00,34.3,21.1,29.88,NNE,22,3.6,5.4,58,0.00,,---,0.00,VWS V14.01,2013-02-11 23:14:00,
2013-02-11 17:19:00,34.0,20.8,29.88,WNW,292,2.0,3.4,58,0.00,,---,0.00,VWS V14.01,2013-02-11 23:19:00,
2013-02-11 17:24:00,34.0,20.8,29.88,ENE,68,2.7,3.4,58,0.00,,---,0.00,VWS V14.01,2013-02-11 23:24:00,
2013-02-11 17:29:00,34.0,20.8,29.88,WNW,292,3.6,3.6,58,0.00,,---,0.00,VWS V14.01,2013-02-11 23:29:00,
2013-02-11 17:34:00,33.6,20.8,29.88,NNW,338,3.1,3.1,59,0.00,,---,0.00,VWS V14.01,2013-02-11 23:34:00,
2013-02-11 17:39:00,33.4,20.7,29.88,NNW,338,3.4,4.0,59,0.00,,---,0.00,VWS V14.01,2013-02-11 23:39:00,
2013-02-11 17:44:00,33.3,20.5,29.88,NNW,338,3.8,7.2,59,0.00,,---,0.00,VWS V14.01,2013-02-11 23:44:00,
2013-02-11 17:49:00,33.1,20.7,29.88,NNW,338,2.9,2.9,60,0.00,,---,0.00,VWS V14.01,2013-02-11 23:49:00,
2013-02-11 17:54:00,32.7,20.4,29.88,South,180,2.0,2.0,60,0.00,,---,0.00,VWS V14.01,2013-02-11 23:54:00,
2013-02-11 17:59:00,32.5,20.2,29.88,NW,315,1.3,1.3,60,0.00,,---,0.00,VWS V14.01,2013-02-11 23:59:00,
2013-02-11 18:04:00,32.2,19.9,29.88,NNW,338,3.6,3.6,60,0.00,,---,0.00,VWS V14.01,2013-02-12 00:04:00,
2013-02-11 18:09:00,32.0,20.1,29.88,North,0,2.9,2.9,61,0.00,,---,0.00,VWS V14.01,2013-02-12 00:09:00,
2013-02-11 18:14:00,31.6,19.8,29.88,North,0,3.4,3.4,61,0.00,,---,0.00,VWS V14.01,2013-02-12 00:14:00,
2013-02-11 18:19:00,31.5,19.6,29.88,SE,135,3.4,4.3,61,0.00,,---,0.00,VWS V14.01,2013-02-12 00:19:00,
2013-02-11 18:24:00,31.3,19.4,29.88,WNW,292,3.6,3.6,61,0.00,,---,0.00,VWS V14.01,2013-02-12 00:24:00,
2013-02-11 18:29:00,31.3,19.4,29.88,NNW,338,3.1,3.6,61,0.00,,---,0.00,VWS V14.01,2013-02-12 00:29:00,
2013-02-11 18:34:00,30.9,19.5,29.88,ENE,68,2.5,2.5,62,0.00,,---,0.00,VWS V14.01,2013-02-12 00:34:00,
2013-02-11 18:39:00,30.6,19.1,29.88,NW,315,3.8,3.8,62,0.00,,---,0.00,VWS V14.01,2013-02-12 00:39:00,
2013-02-11 18:44:00,30.4,18.9,29.88,North,0,2.5,2.5,62,0.00,,---,0.00,VWS V14.01,2013-02-12 00:44:00,
2013-02-11 18:49:00,30.2,19.1,29.88,NNW,338,3.6,3.6,63,0.00,,---,0.00,VWS V14.01,2013-02-12 00:49:00,
2013-02-11 18:54:00,30.2,19.1,29.91,NNW,338,2.5,2.5,63,0.00,,---,0.00,VWS V14.01,2013-02-12 00:54:00,
2013-02-11 18:59:00,30.0,19.0,29.91,WNW,292,2.5,2.5,63,0.00,,---,0.00,VWS V14.01,2013-02-12 00:59:00,
2013-02-11 19:04:00,29.8,19.2,29.91,ENE,68,1.6,1.6,64,0.00,,---,0.00,VWS V14.01,2013-02-12 01:04:00,
2013-02-11 19:09:00,29.7,19.0,29.91,NNE,22,1.6,1.6,64,0.00,,---,0.00,VWS V14.01,2013-02-12 01:09:00,
2013-02-11 19:14:00,29.5,18.8,29.91,NNE,22,3.8,3.8,64,0.00,,---,0.00,VWS V14.01,2013-02-12 01:14:00,
2013-02-11 19:19:00,29.3,18.6,29.91,NNW,338,2.9,2.9,64,0.00,,---,0.00,VWS V14.01,2013-02-12 01:19:00,
2013-02-11 19:24:00,29.1,18.8,29.91,NW,315,2.0,2.0,65,0.00,,---,0.00,VWS V14.01,2013-02-12 01:24:00,
2013-02-11 19:29:00,28.9,18.7,29.91,ENE,68,0.9,2.5,65,0.00,,---,0.00,VWS V14.01,2013-02-12 01:29:00,
2013-02-11 19:34:00,28.8,18.5,29.91,NNE,22,1.3,1.3,65,0.00,,---,0.00,VWS V14.01,2013-02-12 01:34:00,
2013-02-11 19:39:00,28.6,18.3,29.91,NE,45,1.6,1.6,65,0.00,,---,0.00,VWS V14.01,2013-02-12 01:39:00,
2013-02-11 19:44:00,28.4,18.5,29.91,NNE,22,1.3,1.3,66,0.00,,---,0.00,VWS V14.01,2013-02-12 01:44:00,
2013-02-11 19:49:00,28.2,18.3,29.91,SE,135,1.6,3.1,66,0.00,,---,0.00,VWS V14.01,2013-02-12 01:49:00,
2013-02-11 19:54:00,28.2,18.3,29.91,North,0,1.1,2.2,66,0.00,,---,0.00,VWS V14.01,2013-02-12 01:54:00,
2013-02-11 19:59:00,28.0,18.5,29.91,NNE,22,0.9,0.9,67,0.00,,---,0.00,VWS V14.01,2013-02-12 01:59:00,
2013-02-11 20:04:00,28.0,18.5,29.91,NNE,22,2.5,2.5,67,0.00,,---,0.00,VWS V14.01,2013-02-12 02:04:00,
2013-02-11 20:09:00,28.0,18.5,29.91,NNW,338,2.9,2.9,67,0.00,,---,0.00,VWS V14.01,2013-02-12 02:09:00,
2013-02-11 20:14:00,27.9,18.3,29.91,NW,315,1.1,2.2,67,0.00,,---,0.00,VWS V14.01,2013-02-12 02:14:00,
2013-02-11 20:19:00,27.9,18.7,29.91,WNW,292,2.7,2.9,68,0.00,,---,0.00,VWS V14.01,2013-02-12 02:19:00,
2013-02-11 20:24:00,27.7,18.5,29.91,NNW,338,3.8,3.8,68,0.00,,---,0.00,VWS V14.01,2013-02-12 02:24:00,
2013-02-11 20:29:00,27.7,18.5,29.91,West,270,0.9,2.2,68,0.00,,---,0.00,VWS V14.01,2013-02-12 02:29:00,
2013-02-11 20:34:00,27.5,18.3,29.91,NNW,338,1.3,2.7,68,0.00,,---,0.00,VWS V14.01,2013-02-12 02:34:00,
2013-02-11 20:39:00,27.5,18.3,29.91,NNW,338,2.0,2.5,68,0.00,,---,0.00,VWS V14.01,2013-02-12 02:39:00,
2013-02-11 20:44:00,27.3,18.2,29.91,WNW,292,2.9,3.4,68,0.00,,---,0.00,VWS V14.01,2013-02-12 02:44:00,
2013-02-11 20:49:00,27.1,18.0,29.91,NNW,338,2.0,2.0,68,0.00,,---,0.00,VWS V14.01,2013-02-12 02:49:00,
2013-02-11 20:54:00,27.0,18.2,29.91,WNW,292,2.5,2.5,69,0.00,,---,0.00,VWS V14.01,2013-02-12 02:54:00,
2013-02-11 20:59:00,27.0,18.2,29.91,NNW,338,0.0,2.9,69,0.00,,---,0.00,VWS V14.01,2013-02-12 02:59:00,
2013-02-11 21:04:00,26.8,18.0,29.91,North,0,0.0,2.0,69,0.00,,---,0.00,VWS V14.01,2013-02-12 03:04:00,
2013-02-11 21:09:00,26.6,17.8,29.91,NNW,338,1.1,1.1,69,0.00,,---,0.00,VWS V14.01,2013-02-12 03:09:00,
2013-02-11 21:14:00,26.6,18.1,29.91,NNW,338,2.7,2.7,70,0.00,,---,0.00,VWS V14.01,2013-02-12 03:14:00,
2013-02-11 21:19:00,26.4,18.0,29.91,NNW,338,2.0,2.5,70,0.00,,---,0.00,VWS V14.01,2013-02-12 03:19:00,
2013-02-11 21:24:00,26.6,18.1,29.91,NNW,338,2.7,3.1,70,0.00,,---,0.00,VWS V14.01,2013-02-12 03:24:00,
2013-02-11 21:30:00,26.4,18.0,29.91,North,0,0.9,1.6,70,0.00,,---,0.00,VWS V14.01,2013-02-12 03:30:00,
2013-02-11 21:35:00,26.4,18.0,29.91,NNW,338,1.1,1.1,70,0.00,,---,0.00,VWS V14.01,2013-02-12 03:35:00,
2013-02-11 21:40:00,26.4,18.0,29.91,NW,315,1.6,1.6,70,0.00,,---,0.00,VWS V14.01,2013-02-12 03:40:00,
2013-02-11 21:45:00,26.4,18.0,29.91,WNW,292,1.3,2.5,70,0.00,,---,0.00,VWS V14.01,2013-02-12 03:45:00,
2013-02-11 21:50:00,26.4,18.0,29.91,NNW,338,1.1,1.1,70,0.00,,---,0.00,VWS V14.01,2013-02-12 03:50:00,
2013-02-11 21:55:00,26.2,17.8,29.91,North,0,1.6,1.6,70,0.00,,---,0.00,VWS V14.01,2013-02-12 03:55:00,
2013-02-11 22:00:00,26.1,17.6,29.91,NNW,338,2.0,2.2,70,0.00,,---,0.00,VWS V14.01,2013-02-12 04:00:00,
2013-02-11 22:05:00,26.1,17.6,29.91,NW,315,2.0,2.0,70,0.00,,---,0.00,VWS V14.01,2013-02-12 04:05:00,
2013-02-11 22:10:00,26.1,17.6,29.91,WNW,292,2.0,2.0,70,0.00,,---,0.00,VWS V14.01,2013-02-12 04:10:00,
2013-02-11 22:15:00,25.9,17.5,29.91,WNW,292,2.0,2.0,70,0.00,,---,0.00,VWS V14.01,2013-02-12 04:15:00,
2013-02-11 22:20:00,25.9,17.5,29.91,WNW,292,2.0,2.0,70,0.00,,---,0.00,VWS V14.01,2013-02-12 04:20:00,
2013-02-11 22:25:00,25.7,17.6,29.91,West,270,0.0,0.0,71,0.00,,---,0.00,VWS V14.01,2013-02-12 04:25:00,
2013-02-11 22:30:00,25.5,17.4,29.91,West,270,0.0,0.0,71,0.00,,---,0.00,VWS V14.01,2013-02-12 04:30:00,
2013-02-11 22:35:00,25.2,17.1,29.91,West,270,0.0,0.0,71,0.00,,---,0.00,VWS V14.01,2013-02-12 04:35:00,
2013-02-11 22:40:00,25.0,16.9,29.91,West,270,1.1,1.1,71,0.00,,---,0.00,VWS V14.01,2013-02-12 04:40:00,
2013-02-11 22:45:00,24.8,17.1,29.91,WSW,248,0.0,0.0,72,0.00,,---,0.00,VWS V14.01,2013-02-12 04:45:00,
2013-02-11 22:50:00,24.6,16.9,29.91,SSW,202,0.0,0.0,72,0.00,,---,0.00,VWS V14.01,2013-02-12 04:50:00,
2013-02-11 22:55:00,24.6,17.2,29.91,SSW,202,0.0,0.0,73,0.00,,---,0.00,VWS V14.01,2013-02-12 04:55:00,
2013-02-11 23:00:00,24.4,17.0,29.91,SSW,202,0.0,0.0,73,0.00,,---,0.00,VWS V14.01,2013-02-12 05:00:00,
2013-02-11 23:05:00,24.3,16.9,29.91,SSW,202,0.0,0.0,73,0.00,,---,0.00,VWS V14.01,2013-02-12 05:05:00,
2013-02-11 23:10:00,24.1,17.0,29.91,SSW,202,0.0,0.0,74,0.00,,---,0.00,VWS V14.01,2013-02-12 05:10:00,
2013-02-11 23:15:00,24.1,17.0,29.91,SW,225,0.0,0.0,74,0.00,,---,0.00,VWS V14.01,2013-02-12 05:15:00,
2013-02-11 23:20:00,24.1,17.0,29.91,WSW,248,1.1,1.1,74,0.00,,---,0.00,VWS V14.01,2013-02-12 05:20:00,
2013-02-11 23:25:00,24.1,17.3,29.91,South,180,0.0,0.0,75,0.00,,---,0.00,VWS V14.01,2013-02-12 05:25:00,
2013-02-11 23:30:00,23.9,17.1,29.91,South,180,1.1,1.1,75,0.00,,---,0.00,VWS V14.01,2013-02-12 05:30:00,
2013-02-11 23:35:00,23.9,17.1,29.91,SSW,202,0.0,0.0,75,0.00,,---,0.00,VWS V14.01,2013-02-12 05:35:00,
2013-02-11 23:40:00,23.9,17.5,29.91,WSW,248,0.0,1.1,76,0.00,,---,0.00,VWS V14.01,2013-02-12 05:40:00,
2013-02-11 23:45:00,23.7,17.3,29.91,WSW,248,0.0,0.0,76,0.00,,---,0.00,VWS V14.01,2013-02-12 05:45:00,
2013-02-11 23:50:00,23.5,17.1,29.91,SSW,202,0.0,0.0,76,0.00,,---,0.00,VWS V14.01,2013-02-12 05:50:00,
2013-02-11 23:55:00,23.5,17.1,29.91,SW,225,0.0,0.0,76,0.00,,---,0.00,VWS V14.01,2013-02-12 05:55:00,